INMARSAT 5-F3

Last updated on Tue Oct 08 2024 00:02:40 GMT+0000 (Coordinated Universal Time)

1 40882U 15042A 24280.64916036 .00000061 00000+0 00000+0 0 9990 2 40882 0.0190 152.9400 0000370 291.6785 344.4711 1.00270679 33353
UTC large
Height (km)
Speed (km/s)
/
Latitude / Longitude
Inclination (degrees)
Orbital Period (minutes)
Azimuth
Elevation
Range (km)
Doppler Factor

Next 0 passes for location: London (51.5072 / 0.1276)

Sorry there are no passes over London.